Regional Weather Roundup
Issued by NWS

Home | Current Version | Previous Version | Text Only | Print | Product List | Glossary On
Versions: 1 2 3 4 5 6 7 8 9 10 11 12 13 14 15 16 17 18 19 20 21 22 23 24 25 26 27 28 29 30 31 32 33 34 35 36 37 38 39 40 41 42 43 44 45 46 47 48 49 50
000
ASCA44 KEWX 300620
RWRMX

LATIN AMERICA AND CARIBBEAN REGIONAL WEATHER ROUNDUP
NATIONAL WEATHER SERVICE AUSTIN/SAN ANTONIO TX
100 AM CDT TUE SEP 30 2014

NOTE: "FAIR" INDICATED FEW OR NO CLOUDS BELOW 12,000 FEET WITH NO
SIGNIFICANT WEATHER AND/OR OBSTRUCTIONS TO VISIBILITY.

BAJA CALIFORNIA

CITY           SKY/WX    TMP DP  RH WIND       PRES   REMARKS
LA PAZ           N/A    N/A N/A N/A MISG        N/A
TIJUANA        CLEAR     66  57  72 N5        29.92S

NORTHWESTERN MEXICO

CITY           SKY/WX    TMP DP  RH WIND       PRES   REMARKS
CULIACAN       PTCLDY    84  77  79 CALM      29.79  HX  94
DURANGO        CLEAR     61  52  72 CALM      30.18R

NORTHEASTERN MEXICO

CITY           SKY/WX    TMP DP  RH WIND       PRES   REMARKS
MONTERREY      PTCLDY    73  68  83 SE5       29.93F
REYNOSA        MOCLDY    75  70  83 N2        29.87
CD. VICTORIA   MOCLDY    75  72  88 SW6       29.92

WESTERN MEXICO

CITY           SKY/WX    TMP DP  RH WIND       PRES   REMARKS
DEL BAJIO      PTCLDY    66  54  63 CALM      30.19R
GUADALAJARA    PTCLDY    68  61  77 S6        30.08
MAZATLAN       PTCLDY    79  75  89 N7        29.76R
P. VALLARTA    MOCLDY    81  77  89 CALM      29.80S THUNDER
ZACATECAS      CLEAR     55  48  76 NE12      30.21F

CENTRAL MEXICO

CITY           SKY/WX    TMP DP  RH WIND       PRES   REMARKS
MEXICO CITY    CLOUDY    61  55  82 N6        30.26S
MORELIA        TSTM      61  59  94 CALM      30.16
QUERETARO      PTCLDY    57  54  88 SE6       30.24F
S. LUIS POTOSI PTCLDY    61  55  82 SE9       30.18F
TOLUCA         CLOUDY    54  48  82 CALM      30.32F HAZE

SOUTHERN MEXICO

CITY           SKY/WX    TMP DP  RH WIND       PRES   REMARKS
ACAPULCO       LGT RAIN  77  75  94 NE8       29.84F

YUCATAN PENINSULA

CITY           SKY/WX    TMP DP  RH WIND       PRES   REMARKS
CANCUN         PTCLDY    77  77 100 CALM      29.88F
COZUMEL        PTCLDY    73  73 100 SE8       29.87F
MERIDA         CLOUDY    77  77 100 SE9       29.87F
TAPACHULA      CLOUDY    73  73 100 CALM      29.90F

CENTRAL AMERICA

CITY           SKY/WX    TMP DP  RH WIND       PRES   REMARKS
MANAGUA        TSTM      77  75  94 CALM      29.80F

CARIBBEAN

CITY           SKY/WX    TMP DP  RH WIND       PRES   REMARKS
ARUBA          PTCLDY    82  77  83 E17       29.83F HX  91
CURACAO        PTCLDY    82  77  83 MISG      29.89S HX  91
KINGSTON       PTCLDY    84  75  74 SE15      29.86F HX  92
NASSAU         LGT RAIN  81  77  89 S5        29.89F
SAN JUAN       PTCLDY    79  75  89 S5        29.94F
SANTO DOMINGO  PTCLDY    77  73  88 S7        29.92S
ST. MAARTEN    PTCLDY    82  73  74 SE8       29.94S

$$




USA.gov is the U.S. government's official web portal to all federal, state and local government web resources and services.